Location: Unspecified
(0.0000°N, 0.0000°E)
Time: 10:31:39
(UTC+00:00)

Vanguard 2 - Visible Passes

Search period start: 30 May 2024 00:00
Search period end: 09 June 2024 00:00
Orbit: 552 x 2914 km, 32.9° (Epoch: 29 May)

Date Brightness Start Highest point End Pass type
(mag) Time Alt. Az. Time Alt. Az. Time Alt. Az.
30 May 11.6 02:33:06 11° SSE 02:33:06 11° SSE 02:34:28 10° SSE visible
30 May 11.4 04:35:45 10° SSW 04:45:34 18° SSE 04:55:57 10° SE visible
30 May 9.2 20:05:40 10° NNW 20:07:30 20° N 20:07:30 20° N visible
31 May 11.5 02:46:35 12° SSE 02:46:35 12° SSE 02:49:41 10° SSE visible
31 May 11.4 04:50:07 10° SSW 05:01:22 21° SSE 05:13:06 10° ESE visible
31 May 9.2 20:19:27 10° NW 20:21:07 23° NNW 20:21:07 23° NNW visible
01 Jun 11.4 03:00:03 12° S 03:00:13 12° S 03:06:03 10° SSE visible
01 Jun 11.4 05:04:16 10° SSW 05:16:55 25° SSE 05:29:56 10° ESE visible
01 Jun 9.6 20:33:33 10° NW 20:34:45 20° NW 20:34:45 20° NW visible
02 Jun 11.4 03:13:32 13° S 03:16:10 14° SSE 03:23:21 10° SE visible
02 Jun 11.4 05:18:18 10° SSW 05:32:14 31° SSE 05:46:21 10° E visible
02 Jun 9.2 18:42:37 10° N 18:44:30 13° NE 18:46:29 10° ENE visible
02 Jun 10.1 20:47:57 10° WNW 20:48:24 13° WNW 20:48:24 13° WNW visible
03 Jun 11.3 03:27:02 14° S 03:31:58 16° SSE 03:41:01 10° SE visible
03 Jun 11.2 05:32:17 10° SSW 05:47:19 38° SSE 06:02:20 10° E visible
03 Jun 8.4 18:55:36 10° NNW 18:58:50 23° NE 19:00:55 17° ENE visible
04 Jun 11.2 03:40:32 14° S 03:47:33 19° SSE 03:58:31 10° ESE visible
04 Jun 7.5 19:09:20 10° NW 19:13:06 43° NE 19:14:36 31° E visible
05 Jun 11.1 03:54:03 14° SSW 04:02:54 24° SSE 04:15:38 10° ESE visible
05 Jun 6.8 19:23:28 10° NW 19:27:23 87° NNE 19:28:17 55° ESE visible
06 Jun 11.1 04:07:36 15° SSW 04:17:59 30° SSE 04:32:15 10° E visible
06 Jun 7.5 19:37:56 10° WNW 19:41:45 48° SSW 19:41:59 47° SSW visible
07 Jun 11.4 02:20:01 13° SSE 02:20:01 13° SSE 02:24:37 10° SE visible
07 Jun 11.0 04:21:09 14° SSW 04:32:52 37° SSE 04:48:22 10° E visible
07 Jun 8.6 19:52:49 10° W 19:55:41 25° SW 19:55:41 25° SW visible
08 Jun 11.2 02:33:36 16° SSE 02:34:07 16° SSE 02:42:45 10° ESE visible
08 Jun 10.9 04:34:43 14° SSW 04:47:33 46° SE 05:04:02 10° ENE visible
08 Jun 9.5 20:08:20 10° WSW 20:09:23 13° SW 20:09:23 13° SW visible
